W4SNA-4 Weather Reports


Display with metric or nautical units.
time (UTC)temp
F
wind
direction
speed
MPH
gust
MPH
rain 1hr
in
rain 24hr
in
rain mn
in
humidity
%
barometer
mb
20260508055928 53 0 0.0 0.0 0.00 0.34 0.00 83 1008.7
20260508055428 53 0 0.0 0.0 0.00 0.34 0.00 85 1008.7
20260508054928 53 0 0.0 0.0 0.00 0.34 0.00 86 1008.7
20260508054429 53 0 0.0 0.0 0.00 0.34 0.00 86 1008.7
20260508053928 53 0 0.0 0.0 0.00 0.34 0.00 88 1008.6
20260508053428 53 0 0.0 0.0 0.00 0.34 0.00 88 1008.6
20260508052928 53 0 0.0 0.0 0.00 0.34 0.00 90 1008.6
20260508052428 53 0 0.0 0.0 0.00 0.34 0.00 91 1009.5
20260508051928 53 0 0.0 0.0 0.00 0.34 0.00 92 1009.5
20260508051428 53 0 0.0 0.0 0.00 0.34 0.00 94 1009.5
20260508050928 54 0 0.0 0.0 0.00 0.34 0.34 94 1009.5
20260508050428 54 0 0.0 0.0 0.00 0.34 0.34 95 1009.5
20260508045928 54 0 0.0 0.0 0.00 0.34 0.34 96 1009.5
20260508045429 55 0 0.0 0.0 0.00 0.34 0.34 97 1009.2
20260508044930 55 0 0.0 0.0 0.00 0.34 0.34 97 1009.2
20260508043928 54 0 0.0 0.0 0.00 0.34 0.34 97 1009.2
20260508043428 54 0 0.0 0.0 0.00 0.34 0.34 97 1009.2
20260508042928 54 0 0.0 0.0 0.00 0.34 0.34 96 1009.2
20260508042215 54 0 0.0 0.0 0.00 0.35 0.34 96 1009.3
20260508041714 54 0 0.0 0.0 0.00 0.35 0.34 97 1009.3
20260508041215 53 0 0.0 0.0 0.00 0.35 0.34 97 1009.3
20260508040712 53 0 0.0 0.0 0.00 0.35 0.34 97 1009.0
20260508040222 53 0 0.0 0.0 0.00 0.35 0.34 97 1009.0
20260508035711 53 0 0.0 0.0 0.00 0.35 0.34 97 1009.0
20260508035222 54 0 0.0 0.0 0.00 0.35 0.34 97 1009.0
20260508034720 54 0 0.0 0.0 0.00 0.35 0.34 97 1009.0
20260508034215 54 0 0.0 0.0 0.00 0.35 0.34 97 1009.0
20260508033711 54 0 0.0 0.0 0.00 0.35 0.34 97 1009.0
20260508033127 54 0 0.0 0.0 0.00 0.35 0.34 97 1009.0
20260508032617 55 0 0.0 0.0 0.00 0.35 0.34 98 1009.0
20260508032129 55 0 0.0 0.0 0.00 0.36 0.34 98 1009.0
20260508031625 55 0 0.0 0.0 0.00 0.36 0.34 98 1009.0
20260508031117 55 0 0.0 0.0 0.00 0.37 0.34 98 1009.0
20260508030624 55 0 0.0 0.0 0.00 0.39 0.34 98 1008.9
20260508030117 55 0 0.0 0.0 0.00 0.40 0.34 98 1008.9
20260508025617 55 0 0.0 0.0 0.00 0.41 0.34 98 1008.9
20260508025118 55 0 0.0 0.0 0.00 0.41 0.34 98 1008.6
20260508024617 55 0 0.0 0.0 0.00 0.42 0.34 98 1008.6
20260508023752 55 0 0.0 0.0 0.00 0.44 0.34 98 1008.6
20260508023257 55 0 0.0 0.0 0.00 0.45 0.34 98 1008.6
20260508022753 55 0 0.0 0.0 0.00 0.47 0.34 98 1008.6
20260508022256 55 0 0.0 0.0 0.00 0.48 0.34 98 1008.4
20260508021753 55 0 0.0 0.0 0.00 0.48 0.34 98 1008.4
20260508021253 55 0 0.0 0.0 0.00 0.48 0.34 98 1008.4
20260508020846 55 0 0.0 0.0 0.00 0.50 0.34 98 1008.1
20260508020752 55 0 0.0 0.0 0.00 0.50 0.34 98 1008.1
20260508020257 55 0 0.0 0.0 0.00 0.52 0.34 98 1008.1
20260508015753 55 0 0.0 0.0 0.00 0.53 0.34 98 1008.1
20260508015255 55 0 0.0 0.0 0.00 0.54 0.34 98 1007.9
20260508014752 55 0 0.0 0.0 0.00 0.54 0.34 98 1007.9
20260508014257 55 0 0.0 0.0 0.00 0.55 0.34 98 1007.9
20260508013752 55 0 0.0 0.0 0.00 0.55 0.34 98 1007.6
20260508013258 55 0 0.0 0.0 0.00 0.55 0.34 98 1007.6
20260508012753 55 0 0.0 0.0 0.00 0.55 0.34 98 1007.6
20260508012256 55 0 0.0 0.0 0.00 0.55 0.34 98 1007.3
20260508011511 55 0 0.0 0.0 0.00 0.56 0.34 98 1007.3
20260508011010 55 0 0.0 0.0 0.00 0.56 0.34 98 1007.3
20260508010511 55 0 0.0 0.0 0.00 0.57 0.34 98 1006.8
20260508010010 55 0 0.0 0.0 0.00 0.57 0.34 97 1006.8
20260508005632 55 0 0.0 0.0 0.00 0.57 0.34 97 1006.8
20260508005017 55 0 0.0 0.0 0.00 0.57 0.34 98 1006.6
20260508004514 55 0 0.0 0.0 0.00 0.57 0.34 97 1006.6
20260508004010 55 0 0.0 0.0 0.00 0.57 0.34 98 1006.6
20260508003533 55 0 0.0 0.0 0.00 0.57 0.34 97 1006.3
20260508003010 55 0 0.0 0.0 0.00 0.57 0.34 97 1006.3
20260508002513 56 0 0.0 0.0 0.00 0.57 0.34 97 1006.3
20260508002010 56 0 0.0 1.0 0.00 0.57 0.34 97 1006.5
20260508001512 56 0 0.0 1.0 0.00 0.57 0.34 97 1006.5
20260508001010 56 0 0.0 0.0 0.00 0.57 0.34 97 1006.5
20260508000513 56 0 0.0 0.0 0.00 0.57 0.34 97 1006.2
20260508000010 56 0 0.0 0.0 0.00 0.57 0.34 97 1006.2
20260507235512 57 0 0.0 0.0 0.00 0.57 0.34 98 1006.2
20260507235010 57 0 0.0 0.0 0.00 0.57 0.34 98 1006.2
20260507234511 57 0 0.0 0.0 0.00 0.57 0.34 98 1006.2
20260507234010 56 0 0.0 0.0 0.00 0.57 0.34 97 1006.2
20260507233512 56 0 0.0 0.0 0.00 0.57 0.34 97 1006.1
20260507233010 56 0 0.0 0.0 0.00 0.57 0.34 97 1006.1
20260507232512 56 0 0.0 0.0 0.00 0.57 0.34 97 1006.1
20260507232013 56 0 0.0 0.0 0.00 0.57 0.34 97 1006.0
20260507231511 57 0 0.0 0.0 0.00 0.57 0.34 97 1006.0
20260507231010 57 0 0.0 0.0 0.00 0.57 0.34 97 1006.0
20260507230510 57 0 0.0 0.0 0.00 0.57 0.34 97 1005.5
20260507230010 57 0 0.0 0.0 0.01 0.57 0.34 97 1005.5
20260507225523 57 0 0.0 0.0 0.01 0.57 0.34 97 1005.5
20260507225011 57 0 0.0 0.0 0.01 0.57 0.34 97 1005.1
20260507224516 57 0 0.0 0.0 0.02 0.57 0.34 97 1005.1
20260507224010 57 0 0.0 0.0 0.03 0.57 0.34 97 1005.1
20260507223517 57 0 0.0 0.0 0.04 0.57 0.34 97 1005.1
20260507223009 57 0 0.0 1.0 0.04 0.57 0.34 97 1005.1
20260507222521 57 0 0.0 1.0 0.04 0.57 0.34 97 1005.1
20260507222010 57 0 0.0 0.0 0.04 0.57 0.34 97 1004.9
20260507221519 57 0 0.0 0.0 0.04 0.57 0.34 97 1004.9
20260507221020 57 0 0.0 0.0 0.04 0.57 0.34 97 1004.9
20260507220519 57 0 0.0 0.0 0.04 0.57 0.34 96 1004.5
20260507220014 57 0 0.0 0.0 0.03 0.56 0.33 96 1004.5
20260507215511 58 0 0.0 0.0 0.03 0.56 0.33 97 1004.5
20260507215016 58 0 0.0 0.0 0.03 0.56 0.33 96 1004.5
20260507214512 58 0 0.0 0.0 0.02 0.55 0.32 97 1004.5
20260507214021 58 0 0.0 0.0 0.01 0.54 0.31 96 1004.5
20260507213513 58 0 0.0 0.0 0.00 0.53 0.30 96 1004.1
20260507213013 58 0 0.0 0.0 0.02 0.53 0.30 96 1004.1
20260507212512 59 0 0.0 0.0 0.05 0.53 0.30 96 1004.1
20260507212012 59 0 0.0 0.0 0.11 0.53 0.30 96 1003.9
20260507211512 59 0 0.0 0.0 0.14 0.53 0.30 96 1003.9
20260507211012 59 0 0.0 0.0 0.14 0.53 0.30 96 1003.9
20260507210515 59 0 0.0 0.0 0.14 0.53 0.30 96 1003.7
20260507210011 60 0 0.0 0.0 0.14 0.53 0.30 96 1003.7
20260507205529 60 0 0.0 1.0 0.14 0.53 0.30 96 1003.7
20260507205010 60 0 0.0 1.0 0.14 0.53 0.30 96 1003.9
20260507204514 59 0 0.0 0.0 0.14 0.53 0.30 96 1003.9
20260507204015 59 0 0.0 0.0 0.14 0.53 0.30 95 1003.9
20260507203512 60 0 0.0 0.0 0.14 0.53 0.30 95 1003.9
20260507203010 59 0 0.0 0.0 0.12 0.51 0.28 95 1003.9
20260507202509 60 0 0.0 0.0 0.09 0.48 0.25 94 1003.9
20260507202010 60 0 0.0 0.0 0.03 0.42 0.19 93 1003.3
20260507201512 60 0 0.0 0.0 0.00 0.39 0.16 92 1003.3
20260507201009 61 0 0.0 0.0 0.00 0.39 0.16 91 1003.3
20260507200510 61 0 0.0 0.0 0.00 0.39 0.16 89 1003.6
20260507200010 63 0 0.0 0.0 0.00 0.39 0.16 87 1003.6
20260507195512 64 0 0.0 0.0 0.00 0.39 0.16 86 1003.6
20260507195009 65 0 0.0 0.0 0.00 0.39 0.16 83 1003.3
20260507194511 67 0 0.0 11.0 0.00 0.39 0.16 82 1003.3
20260507194009 69 0 0.0 11.0 0.00 0.39 0.16 77 1003.3
20260507193524 71 0 0.0 0.0 0.00 0.39 0.16 84 1002.7
20260507193012 71 0 0.0 0.0 0.00 0.39 0.16 80 1002.7
20260507192516 71 0 0.0 0.0 0.00 0.39 0.16 85 1002.7
20260507192013 71 0 0.0 0.0 0.00 0.39 0.16 80 1002.7
20260507191513 72 0 0.0 0.0 0.00 0.39 0.16 84 1002.7
20260507191011 71 0 0.0 0.0 0.00 0.39 0.16 85 1002.7
20260507190509 71 0 0.0 0.0 0.00 0.39 0.16 82 1002.8
20260507190143 71 0 0.0 0.0 0.00 0.39 0.16 82 1002.8
20260507190010 71 0 0.0 0.0 0.00 0.39 0.16 82 1002.8
20260507185510 70 0 0.0 0.0 0.00 0.39 0.16 83 1002.8
20260507185009 70 0 0.0 0.0 0.00 0.39 0.16 84 1003.3
20260507184524 70 0 0.0 0.0 0.00 0.39 0.16 85 1003.3
20260507184156 70 0 0.0 0.0 0.00 0.39 0.16 88 1003.3
20260507184018 70 0 0.0 0.0 0.00 0.39 0.16 88 1003.3
20260507183512 70 0 0.0 0.0 0.00 0.39 0.16 87 1003.3
20260507183014 69 0 0.0 0.0 0.00 0.39 0.16 86 1003.3
20260507182510 69 0 0.0 0.0 0.00 0.39 0.16 90 1003.3
20260507182010 69 0 0.0 0.0 0.00 0.39 0.16 91 1003.3
20260507181509 69 0 0.0 0.0 0.00 0.39 0.16 92 1003.3
20260507181010 69 0 0.0 0.0 0.00 0.39 0.16 94 1003.3
20260507180520 68 0 0.0 0.0 0.00 0.39 0.16 95 1003.7
20260507180009 68 0 0.0 0.0 0.00 0.39 0.16 95 1003.7
20260507175512 68 0 0.0 0.0 0.00 0.39 0.16 97 1003.7
20260507175010 68 0 0.0 0.0 0.00 0.40 0.16 98 1003.8
20260507174512 67 0 0.0 0.0 0.00 0.40 0.16 98 1003.8
20260507174010 67 0 0.0 0.0 0.00 0.40 0.16 98 1003.8
20260507173515 66 0 0.0 0.0 0.00 0.40 0.16 98 1003.9
20260507173010 67 0 0.0 0.0 0.00 0.40 0.16 99 1003.9
20260507172522 67 0 0.0 0.0 0.00 0.41 0.16 99 1003.9
20260507172013 67 0 0.0 0.0 0.00 0.42 0.16 99 1004.2
20260507171509 66 0 0.0 0.0 0.00 0.42 0.16 99 1004.2
20260507171009 66 0 0.0 0.0 0.00 0.44 0.16 98 1004.2
20260507170511 66 0 0.0 0.0 0.00 0.44 0.16 98 1004.4
20260507170009 66 0 0.0 0.0 0.00 0.44 0.16 98 1004.4
20260507165514 66 0 0.0 0.0 0.00 0.44 0.16 99 1004.4
20260507165021 66 0 0.0 0.0 0.00 0.44 0.16 99 1004.3
20260507164512 66 0 0.0 0.0 0.00 0.44 0.16 99 1004.3
20260507164009 65 0 0.0 0.0 0.00 0.44 0.16 98 1004.3
20260507163510 65 0 0.0 0.0 0.00 0.44 0.16 98 1004.5
20260507163010 65 0 0.0 0.0 0.00 0.44 0.16 98 1004.5
20260507162511 65 0 0.0 0.0 0.00 0.44 0.16 99 1004.5
20260507162011 65 0 0.0 0.0 0.01 0.44 0.16 99 1004.0
20260507161517 65 0 0.0 0.0 0.01 0.44 0.16 99 1004.0
20260507161009 65 0 0.0 0.0 0.01 0.44 0.16 99 1004.0
20260507160509 65 0 0.0 0.0 0.01 0.44 0.16 99 1003.9
20260507160019 65 0 0.0 0.0 0.01 0.44 0.16 99 1003.9
20260507155509 65 0 0.0 0.0 0.01 0.44 0.16 99 1003.9
20260507155009 65 0 0.0 0.0 0.01 0.44 0.16 99 1004.0
20260507154517 65 0 0.0 0.0 0.02 0.44 0.16 99 1004.0
20260507154010 64 0 0.0 0.0 0.02 0.44 0.16 99 1004.0
20260507153514 64 0 0.0 0.0 0.02 0.44 0.16 99 1004.2
20260507153010 64 0 0.0 0.0 0.02 0.44 0.16 99 1004.2
20260507152510 64 0 0.0 0.0 0.02 0.44 0.16 99 1004.2
20260507152009 64 0 0.0 0.0 0.01 0.43 0.15 99 1004.5
20260507151511 64 0 0.0 0.0 0.01 0.43 0.15 99 1004.5
20260507151010 64 0 0.0 0.0 0.01 0.43 0.15 99 1004.5
20260507150509 64 0 0.0 0.0 0.01 0.43 0.15 99 1004.9
20260507150009 64 0 0.0 0.0 0.01 0.43 0.15 99 1004.9
20260507145515 64 0 0.0 0.0 0.01 0.43 0.15 99 1004.9
20260507145009 64 0 0.0 0.0 0.02 0.43 0.15 99 1005.5
20260507144509 64 0 0.0 0.0 0.01 0.42 0.14 99 1005.5
20260507144010 64 0 0.0 0.0 0.01 0.42 0.14 99 1005.5
20260507143510 64 0 0.0 0.0 0.02 0.42 0.14 99 1004.9
20260507143013 63 0 0.0 0.0 0.02 0.42 0.14 99 1004.9
20260507142515 63 0 0.0 0.0 0.02 0.42 0.14 99 1004.9
20260507142010 63 0 0.0 0.0 0.02 0.42 0.14 99 1004.9
20260507141009 63 0 0.0 0.0 0.02 0.42 0.14 99 1004.9
20260507140514 63 0 0.0 0.0 0.03 0.42 0.14 99 1004.8
20260507140013 63 0 0.0 0.0 0.03 0.42 0.14 99 1004.8
20260507135510 63 0 0.0 0.0 0.03 0.42 0.14 99 1004.8
20260507135014 63 0 0.0 0.0 0.02 0.41 0.13 98 1004.6
20260507134509 63 0 0.0 0.0 0.02 0.41 0.13 98 1004.6
20260507134018 63 0 0.0 0.0 0.03 0.41 0.13 98 1004.6
20260507133515 63 0 0.0 0.0 0.02 0.40 0.12 98 1004.4
20260507132251 63 0 0.0 0.0 0.05 0.40 0.12 98 1004.1
20260507131300 62 0 0.0 0.0 0.07 0.40 0.12 99 1004.1
20260507130801 62 0 0.0 0.0 0.06 0.39 0.11 98 1004.7
20260507130251 62 0 0.0 0.0 0.06 0.39 0.11 98 1004.7
20260507125758 62 0 0.0 0.0 0.06 0.39 0.11 98 1004.7
20260507125258 62 0 0.0 0.0 0.06 0.39 0.11 98 1005.5
20260507124801 62 0 0.0 0.0 0.06 0.39 0.11 98 1005.5
20260507124252 62 0 0.0 0.0 0.06 0.38 0.10 98 1005.5
20260507123757 62 0 0.0 0.0 0.06 0.38 0.10 98 1006.0
20260507123251 62 0 0.0 0.0 0.05 0.37 0.09 98 1006.0
20260507122421 62 0 0.0 0.0 0.04 0.36 0.08 98 1006.3
20260507121921 62 0 0.0 0.0 0.02 0.34 0.06 98 1006.3
20260507121425 63 0 0.0 0.0 0.01 0.33 0.05 98 1006.3
20260507120926 63 0 0.0 0.0 0.01 0.33 0.05 98 1005.5
20260507120206 63 0 0.0 0.0 0.01 0.33 0.05 98 1005.5
20260507115705 63 0 0.0 0.0 0.01 0.33 0.05 98 1005.5
20260507115206 63 0 0.0 0.0 0.01 0.33 0.05 98 1005.4
20260507114710 63 0 0.0 0.0 0.01 0.33 0.05 98 1005.4
20260507114207 63 0 0.0 0.0 0.01 0.32 0.04 98 1005.4
20260507113706 63 0 0.0 0.0 0.01 0.32 0.04 98 1005.4
20260507113208 63 0 0.0 0.0 0.01 0.32 0.04 98 1005.4
20260507112710 63 0 0.0 0.0 0.01 0.32 0.04 98 1005.4
20260507112209 63 0 0.0 0.0 0.01 0.32 0.04 98 1005.5
20260507111709 63 0 0.0 0.0 0.01 0.32 0.04 98 1005.5
20260507111206 63 0 0.0 0.0 0.01 0.32 0.04 98 1005.5
20260507110710 62 0 0.0 0.0 0.01 0.32 0.04 98 1004.9
20260507110206 62 0 0.0 0.0 0.01 0.32 0.04 98 1004.9
20260507105706 63 0 0.0 0.0 0.01 0.32 0.04 98 1004.9
20260507105212 63 0 0.0 0.0 0.01 0.32 0.04 98 1004.6
20260507104716 62 0 0.0 0.0 0.01 0.32 0.04 98 1004.6
20260507104206 62 0 0.0 0.0 0.00 0.31 0.03 98 1004.6
20260507103206 62 0 0.0 0.0 0.00 0.31 0.03 98 1005.0
20260507102706 62 0 0.0 0.0 0.00 0.31 0.03 98 1005.0
20260507102205 62 0 0.0 0.0 0.00 0.31 0.03 98 1004.9
20260507101708 63 0 0.0 0.0 0.00 0.31 0.03 98 1004.9
20260507101206 62 0 0.0 0.0 0.01 0.31 0.03 98 1004.9
20260507100707 62 0 0.0 0.0 0.01 0.31 0.03 98 1004.9
20260507100210 62 0 0.0 0.0 0.01 0.31 0.03 98 1004.9
20260507095706 62 0 0.0 0.0 0.01 0.31 0.03 98 1004.9
20260507095206 62 0 0.0 0.0 0.01 0.31 0.03 98 1005.1
20260507094705 62 0 0.0 0.0 0.01 0.31 0.03 98 1005.1
20260507094206 62 0 0.0 0.0 0.01 0.31 0.03 98 1005.1
20260507093706 62 0 0.0 0.0 0.01 0.31 0.03 98 1005.0
20260507093205 62 0 0.0 0.0 0.01 0.31 0.03 98 1005.0
20260507092706 62 0 0.0 0.0 0.01 0.31 0.03 98 1005.0
20260507092206 62 0 0.0 0.0 0.01 0.31 0.03 98 1005.5
20260507091705 62 0 0.0 0.0 0.01 0.31 0.03 98 1005.5
20260507091206 62 0 0.0 0.0 0.00 0.30 0.02 98 1005.5
20260507090706 62 0 0.0 0.0 0.00 0.30 0.02 98 1005.1
20260507090205 62 0 0.0 0.0 0.00 0.30 0.02 98 1005.1
20260507085708 62 0 0.0 0.0 0.00 0.30 0.02 98 1005.1
20260507085206 62 0 0.0 0.0 0.00 0.30 0.02 98 1005.0
20260507084705 62 0 0.0 0.0 0.00 0.30 0.02 98 1005.0
20260507084206 62 0 0.0 0.0 0.00 0.30 0.02 98 1005.0
20260507083706 62 0 0.0 0.0 0.00 0.30 0.02 98 1004.8
20260507083205 62 0 0.0 0.0 0.00 0.30 0.02 98 1004.8
20260507082705 62 0 0.0 0.0 0.00 0.30 0.02 98 1004.8
20260507082206 62 0 0.0 0.0 0.00 0.30 0.02 98 1004.2
20260507081706 62 0 0.0 0.0 0.00 0.30 0.02 98 1004.2
20260507081206 62 0 0.0 0.0 0.00 0.30 0.02 98 1004.2
20260507080706 62 0 0.0 0.0 0.00 0.30 0.02 98 1004.9
20260507080206 62 0 0.0 0.0 0.00 0.30 0.02 98 1004.9
20260507075707 62 0 0.0 0.0 0.00 0.30 0.02 98 1004.9
20260507075209 62 0 0.0 0.0 0.00 0.30 0.02 98 1005.5
20260507074706 62 0 0.0 0.0 0.00 0.30 0.02 98 1005.5
20260507074205 62 0 0.0 0.0 0.00 0.30 0.02 98 1005.5
20260507073706 62 0 0.0 0.0 0.00 0.30 0.02 98 1005.2
20260507073137 62 0 0.0 0.0 0.00 0.30 0.02 98 1005.2
20260507072640 62 0 0.0 0.0 0.00 0.30 0.02 98 1005.2
20260507072140 62 0 0.0 0.0 0.00 0.30 0.02 98 1006.0
20260507071642 63 0 0.0 0.0 0.00 0.30 0.02 98 1006.0
20260507071140 63 0 0.0 0.0 0.01 0.30 0.02 98 1006.0
20260507070639 63 0 0.0 0.0 0.01 0.30 0.02 98 1006.0
20260507070138 62 0 0.0 0.0 0.01 0.30 0.02 98 1006.0
20260507065639 63 0 0.0 0.0 0.02 0.30 0.02 98 1006.0
20260507065138 62 0 0.0 0.0 0.02 0.30 0.02 98 1006.5
20260507064644 63 0 0.0 0.0 0.02 0.30 0.02 98 1006.5
20260507064137 63 0 0.0 0.0 0.02 0.30 0.02 98 1006.5
20260507063641 62 0 0.0 0.0 0.02 0.30 0.02 98 1006.5
20260507063148 62 0 0.0 0.0 0.02 0.30 0.02 98 1006.5
20260507062641 62 0 0.0 0.0 0.02 0.30 0.02 97 1006.5
20260507062144 62 0 0.0 0.0 0.02 0.30 0.02 97 1006.6
20260507061637 63 0 0.0 0.0 0.02 0.30 0.02 97 1006.6
20260507061137 63 0 0.0 0.0 0.01 0.29 0.01 97 1006.6
20260507060637 63 0 0.0 0.0 0.01 0.29 0.01 97 1006.7